Tetuan, Morocco

11:47 PM WEST on August 24, 2016 (GMT +0100)
Sania Ramel

Weather History for GMTN - October, 2012

Change the Weather History Date:

Wednesday, October 31, 2012

  Actual Average Record
Temperature  
Mean Temperature 64 °F -  
Max Temperature 72 °F 66 °F 78 °F (2006)
Min Temperature 57 °F 55 °F 48 °F (2013)
Growing Degree Days 14 (Base 50)    
Moisture  
Dew Point 56 °F    
Average Humidity 77    
Maximum Humidity 100    
Minimum Humidity 56    
Precipitation  
Precipitation 0.00 in - - ()
Sea Level Pressure  
Sea Level Pressure 29.60 in    
Wind  
Wind Speed 9 mph ()    
Max Wind Speed 17 mph    
Max Gust Speed -    
Visibility 5.8 miles    
Events      
Averages and records for this station are not official NWS values.
T = Trace of Precipitation, MM = Missing Value Source: Averaged Metar Reports

Daily Weather History Graph

Daily Weather History Graph

Search for Another Location

Airport or City:

Trip Planner

Search our weather history database for the weather conditions in past years. The results will help you decide how hot, cold, wet, or windy it might be!

Date:

Astronomy

Oct. 31, 2012 Rise Set
Actual Time 6:42 AM WET 5:26 PM WET
Civil Twilight 6:16 AM WET 5:53 PM WET
Nautical Twilight 5:46 AM WET 6:23 PM WET
Astronomical Twilight 5:16 AM WET 6:52 PM WET
Moon 6:31 PM WET (10/31) 8:07 AM WET (10/31)
Length of Visible Light 11h 37m
Length of Day
10h 44m
Full, 97% of the Moon is Illuminated
Oct 31
Full
Nov 7
Last Quarter
Nov 13
New
Nov 20
First Quarter
Nov 28
Full

Hourly Weather History & Observations

Time (WET) Temp. Dew Point Humidity Pressure Visibility Wind Dir Wind Speed Gust Speed Precip Events Conditions
12:00 AM 60 °F 58 °F 93% 29.51 in 6 mi North 5.8 mph - -  
12:00 AM 59.0 °F 59.0 °F 100% 29.50 in 6.2 mi North 5.8 mph - N/A   Unknown
1:00 AM 59.0 °F 57.2 °F 94% 29.50 in 6.2 mi WSW 3.5 mph - N/A   Unknown
2:00 AM 59.0 °F 57.2 °F 94% 29.50 in 6.2 mi WSW 11.5 mph - N/A   Unknown
3:00 AM 59 °F 55 °F 82% 29.54 in 6 mi West 8.1 mph - -  
3:00 AM 59.0 °F 55.4 °F 88% 29.53 in 6.2 mi West 8.1 mph - N/A   Unknown
4:00 AM 59.0 °F 53.6 °F 82% 29.53 in 6.2 mi West 11.5 mph - N/A   Unknown
5:00 AM 59.0 °F 53.6 °F 82% 29.56 in 6.2 mi West 13.8 mph - N/A   Unknown
6:00 AM 58 °F 53 °F 78% 29.58 in 6 mi WNW 12.7 mph - -   Partly Cloudy
6:00 AM 59.0 °F 53.6 °F 82% 29.56 in 6.2 mi WNW 12.7 mph - N/A   Scattered Clouds
7:00 AM 59.0 °F 53.6 °F 82% 29.59 in 6.2 mi West 15.0 mph - N/A   Scattered Clouds
8:00 AM 60.8 °F 53.6 °F 77% 29.62 in 6.2 mi West 13.8 mph - N/A   Partly Cloudy
9:00 AM 65 °F 54 °F 59% 29.64 in 6 mi West 16.1 mph - -   Scattered Clouds
9:00 AM 64.4 °F 53.6 °F 68% 29.62 in 6.2 mi West 16.1 mph - N/A   Scattered Clouds
10:00 AM 68.0 °F 51.8 °F 56% 29.65 in 6.2 mi West 17.3 mph - N/A   Scattered Clouds
11:00 AM 68.0 °F 53.6 °F 60% 29.65 in 6.2 mi West 15.0 mph - N/A   Scattered Clouds
12:00 PM 68.0 °F 53.6 °F 60% 29.65 in 6.2 mi West 15.0 mph - N/A   Scattered Clouds
2:00 PM 69.8 °F 55.4 °F 60% 29.62 in 0.6 mi West 13.8 mph - N/A   Mostly Cloudy
6:00 PM 66 °F 58 °F 68% 29.66 in 6 mi WNW 6.9 mph - -   Mostly Cloudy
6:00 PM 66.2 °F 57.2 °F 73% 29.65 in 6.2 mi WNW 6.9 mph - N/A   Scattered Clouds
7:00 PM 66.2 °F 57.2 °F 73% 29.65 in 6.2 mi WNW 9.2 mph - N/A   Scattered Clouds
8:00 PM 64.4 °F 57.2 °F 77% 29.65 in 6.2 mi NNW 8.1 mph - N/A   Scattered Clouds
9:00 PM 64 °F 57 °F 73% 29.68 in 6 mi North 6.9 mph - -  
9:00 PM 64.4 °F 57.2 °F 77% 29.65 in 6.2 mi North 6.9 mph - N/A   Unknown
10:00 PM 62.6 °F 59.0 °F 88% 29.65 in 3.7 mi South 4.6 mph - N/A   Unknown
11:00 PM 64.4 °F 57.2 °F 77% 29.65 in 6.2 mi South 3.5 mph - N/A   Unknown